Wind_Speed
21 22 22 23 25 24 24 24 21 19 17 16 14 13 13 11 9 8 7 5 6 7 6 5 5 4 5 6 5 4 4 4 3 2 2 2 2 2 2 2 2 2 2 2 3 3 4 4 4
20 21 21 24 25 25 25 24 22 20 18 17 15 13 12 10 9 9 8 6 6 6 5 5 5 5 5 5 5 4 3 3 3 2 2 2 2 2 2 2 2 1 1 1 2 3 3 3 4
18 20 21 24 24 25 25 24 22 21 20 18 16 13 12 10 9 9 8 7 6 5 5 5 5 4 4 4 4 3 2 2 3 3 2 2 2 2 2 2 2 2 2 1 1 1 2 3 3
16 19 21 23 23 25 25 24 23 22 20 19 17 15 13 11 10 9 8 8 7 5 5 4 4 4 3 2 3 2 2 2 2 3 3 3 2 2 2 2 3 2 1 1 1 1 1 2 3
14 18 21 22 23 24 24 24 23 21 21 20 18 16 15 12 10 9 9 8 6 5 4 3 3 3 2 2 2 1 1 1 2 3 3 3 3 3 3 2 2 2 1 1 1 1 2 3 3
15 19 20 21 22 23 22 22 21 20 20 20 18 17 15 13 11 10 9 7 6 5 3 2 1 1 1 1 1 1 1 2 2 3 3 4 3 3 3 3 2 2 1 1 1 1 2 3 3
15 17 19 19 20 21 21 21 21 21 20 19 19 18 16 14 11 10 9 8 7 6 3 2 1 0 1 1 1 2 2 3 3 3 3 4 4 4 3 3 2 2 2 2 2 2 3 3 3
15 16 17 17 17 19 20 20 19 20 21 20 20 19 17 15 12 10 10 9 7 6 5 2 0 1 2 2 3 3 3 3 4 4 4 4 3 3 3 3 2 1 1 1 1 2 3 3 3
13 14 13 14 14 16 17 17 19 20 20 21 20 19 18 16 13 12 11 10 8 6 5 3 2 1 2 2 3 3 4 4 4 5 4 4 4 3 3 3 2 2 2 2 1 2 2 3 3
11 11 11 12 12 14 15 16 18 19 21 21 20 19 18 16 14 13 12 11 9 9 8 6 3 1 2 2 2 3 4 4 5 5 5 5 5 4 3 3 2 2 2 2 1 2 2 3 3
8 9 10 10 11 13 14 15 17 18 19 21 20 19 18 17 15 13 12 11 10 10 9 7 5 2 3 2 2 3 4 4 5 5 5 5 5 4 3 3 3 2 2 2 2 2 2 3 3
7 8 8 9 11 13 15 15 16 18 19 20 21 20 18 17 15 13 13 12 11 10 9 7 6 4 3 2 2 3 4 5 5 5 5 5 6 5 4 3 3 3 2 2 2 2 2 3 3
7 8 8 8 10 12 14 15 15 17 19 21 20 20 19 17 15 14 13 13 12 11 10 8 6 5 3 2 3 2 3 4 5 5 6 6 6 6 5 5 4 3 2 2 2 2 3 3 3
7 8 8 8 9 11 13 14 16 17 19 20 20 19 18 17 17 15 14 14 13 12 11 9 6 6 5 3 2 3 3 4 5 6 6 6 6 6 6 5 4 4 3 2 2 3 3 3 3
7 7 7 8 9 11 13 15 17 16 18 19 20 19 18 17 17 16 15 14 13 13 12 10 9 8 6 4 2 2 3 5 6 7 6 7 6 6 6 6 5 4 4 3 3 3 3 3 3
8 6 5 6 8 11 13 15 15 16 18 19 19 19 19 18 17 16 16 14 13 13 12 10 10 9 8 6 3 1 2 4 6 7 8 7 7 7 6 6 6 5 4 4 3 3 3 3 3
7 5 4 4 7 10 12 14 14 15 17 19 20 19 18 18 17 16 15 15 14 13 12 11 10 10 9 7 4 1 2 4 6 7 8 8 8 8 7 7 6 6 5 4 4 4 4 4 4
6 3 2 4 6 8 10 12 13 14 15 19 20 19 18 17 16 16 15 14 14 14 13 11 10 10 10 8 5 3 1 3 5 7 8 8 9 9 9 8 8 7 6 6 6 6 6 5 5
6 4 1 2 5 7 9 10 11 14 16 18 19 20 19 17 15 15 15 14 14 14 13 12 11 10 10 9 6 4 2 2 4 6 7 8 8 9 9 9 9 8 8 7 7 7 7 6 6
8 7 6 5 6 6 7 8 9 12 14 16 18 19 19 17 16 15 15 15 14 14 13 13 12 11 10 9 7 5 3 3 3 4 6 7 8 8 10 10 10 10 9 8 8 8 8 8 8
10 10 10 10 9 9 7 7 8 10 12 15 17 18 18 17 16 15 15 15 14 13 13 13 12 11 10 9 8 7 5 4 4 5 6 7 8 9 10 10 11 11 11 9 9 9 9 9 9
12 13 13 12 11 10 9 8 7 9 11 14 16 17 18 17 17 15 14 14 14 13 13 13 13 12 11 10 8 7 6 5 5 5 6 8 9 10 10 11 11 11 11 10 10 10 10 10 10
13 13 12 10 10 9 9 9 7 9 10 13 15 17 17 17 17 16 15 14 13 13 13 13 13 13 12 11 10 8 7 5 6 6 7 8 10 10 11 11 12 12 11 11 11 11 11 11 11
14 13 12 10 8 6 7 8 8 10 11 12 15 17 17 17 17 16 14 13 13 13 13 14 13 12 12 11 10 9 8 6 5 5 6 7 8 9 10 11 12 12 12 12 12 12 12 12 12
15 14 13 12 9 7 7 8 8 9 9 12 15 17 17 16 16 14 13 13 12 12 12 13 13 13 12 11 11 10 8 7 6 5 5 7 8 9 11 12 12 13 13 13 13 13 14 13 13
15 15 15 14 12 11 9 9 9 9 9 12 15 17 17 15 14 13 14 13 12 12 12 13 13 13 13 12 12 10 9 7 6 6 6 7 7 8 10 12 13 13 14 14 14 14 14 14 14
15 15 15 15 14 13 11 10 10 10 11 13 15 17 17 16 15 14 13 14 13 12 12 13 13 13 13 13 12 11 10 9 7 6 6 7 8 8 9 11 13 14 14 14 14 15 15 15 15
17 16 17 17 17 16 14 12 10 11 12 14 15 17 17 16 15 13 13 13 13 12 12 12 13 13 13 13 12 11 10 9 8 7 6 6 7 7 9 10 11 13 14 14 15 15 16 15 15
18 18 18 19 19 18 18 16 15 15 16 16 16 17 16 16 15 14 13 13 12 12 12 12 13 13 13 13 12 12 11 9 9 9 7 6 7 7 8 9 11 12 13 14 14 15 15 15 16
21 19 18 20 19 20 21 19 18 19 19 19 18 18 17 16 16 15 13 13 13 13 12 12 13 13 13 13 13 12 11 10 9 9 8 7 8 8 9 9 11 12 13 14 15 15 16 16 17
Wind_Direction
75 66 61 54 46 45 46 47 43 42 43 41 36 35 36 38 46 55 63 87 93 98 99 97 101 124 135 144 148 148 157 165 177 197 217 219 220 208 199 188 173 150 122 114 112 106 100 97 104
78 67 61 52 44 40 41 43 42 39 40 39 37 37 38 39 44 52 58 64 77 89 93 96 104 124 131 141 145 148 165 176 194 207 227 229 229 222 224 217 204 189 176 151 121 113 110 103 109
77 67 57 47 44 40 38 38 37 35 35 37 37 37 38 43 42 48 53 57 65 77 94 102 109 124 131 143 147 156 171 198 213 223 231 235 234 232 237 232 228 216 191 172 134 120 115 110 109
74 64 55 47 42 39 36 36 34 30 31 34 37 35 38 42 44 46 46 52 60 74 86 93 108 108 116 142 162 177 205 240 245 237 234 238 235 235 244 245 240 225 200 171 170 134 134 131 117
67 59 52 45 40 36 34 32 29 27 27 30 32 35 40 42 41 44 45 46 54 64 74 91 100 114 105 126 145 182 215 222 238 243 239 238 230 238 246 249 245 232 226 235 164 133 127 140 131
69 56 51 42 38 33 28 26 23 27 28 28 28 33 40 45 45 47 48 43 45 50 65 95 102 137 147 151 180 202 222 248 245 238 241 230 237 251 255 255 250 241 232 206 173 154 137 135 129
68 57 52 40 34 30 24 25 27 30 29 28 29 32 38 47 48 51 51 46 44 42 44 76 91 156 179 184 219 233 231 239 242 239 244 245 245 246 248 250 240 240 220 194 194 155 139 139 126
66 58 48 38 30 25 22 23 25 28 28 27 28 30 35 44 47 47 44 40 39 36 32 17 0 252 227 233 243 242 239 236 236 237 238 236 235 235 233 228 230 226 201 195 182 142 129 132 126
66 58 50 38 26 22 20 24 22 26 26 27 28 29 32 38 43 44 40 36 33 32 28 21 341 289 248 257 251 251 243 240 238 237 234 227 230 241 232 231 236 220 206 186 158 141 130 128 124
71 60 52 39 29 22 21 22 22 26 24 26 28 27 27 30 38 41 38 35 33 27 22 15 1 324 311 277 250 254 249 243 238 232 231 227 227 236 231 229 230 217 197 182 160 141 135 132 122
79 65 55 42 31 26 24 20 23 27 25 26 27 25 24 25 29 35 36 34 33 33 27 21 8 346 329 315 279 265 248 245 233 222 219 219 224 223 215 216 213 203 192 189 177 155 149 139 128
95 84 67 49 35 27 21 21 27 24 24 26 26 24 21 21 27 32 33 36 36 33 30 27 15 4 334 315 310 282 239 234 227 218 215 219 219 211 208 209 206 205 207 206 185 161 153 155 150
104 90 80 59 41 27 18 21 23 22 21 23 23 20 22 23 24 27 29 31 32 33 30 29 28 22 1 324 311 293 248 231 215 212 215 220 214 211 210 202 200 205 215 204 190 185 185 181 176
105 92 78 58 40 28 14 13 16 18 20 21 21 19 19 19 19 21 23 23 27 30 29 28 28 22 15 344 310 301 254 223 211 207 213 214 214 216 214 203 203 207 212 208 199 196 196 196 196
110 88 70 51 33 22 9 6 7 14 19 20 19 17 17 17 17 18 19 19 23 24 23 21 22 22 21 9 342 299 246 225 214 208 210 214 211 211 209 209 205 205 206 207 209 207 201 202 203
113 93 67 39 25 12 1 358 360 8 16 17 18 14 14 15 15 16 16 16 21 19 18 18 18 19 18 19 18 301 241 224 218 214 215 214 207 204 208 206 206 209 210 209 212 216 210 214 212
136 110 61 24 14 357 353 350 356 2 11 13 13 11 11 12 12 13 15 16 20 19 18 19 16 14 13 13 18 344 229 225 221 220 221 219 216 215 215 213 213 212 214 216 221 223 227 230 230
147 119 54 357 353 341 339 341 350 3 4 8 9 10 11 10 10 12 13 15 18 19 19 17 12 10 7 11 20 15 256 220 219 221 225 225 221 220 218 220 220 219 220 223 228 231 235 240 241
174 158 166 318 328 326 329 335 346 358 2 3 5 6 7 8 7 8 11 11 13 15 16 15 10 10 6 8 14 13 358 239 227 228 227 227 226 224 222 222 222 223 226 228 233 239 237 241 243
192 189 204 250 280 298 312 328 336 347 356 358 0 2 3 2 3 6 8 10 10 11 14 15 12 11 7 4 4 1 340 291 260 231 224 229 232 228 224 228 228 227 228 231 234 240 243 246 244
199 205 220 243 268 282 291 308 328 339 349 351 353 355 356 357 356 1 4 5 6 8 11 11 9 7 4 0 355 350 341 301 267 250 240 238 235 234 234 232 233 230 231 232 234 241 245 249 249
210 216 226 240 251 262 279 292 317 330 338 342 346 349 350 352 354 356 1 2 2 5 7 8 7 6 3 359 352 342 326 303 282 269 249 241 238 238 234 228 229 230 232 234 238 242 247 252 254
220 225 228 233 243 253 267 277 296 316 330 337 339 343 346 348 351 354 355 359 0 2 4 4 4 4 5 2 355 343 331 308 296 283 262 246 238 239 234 229 228 230 235 237 239 243 248 252 257
226 229 227 230 237 242 260 280 298 309 318 328 337 342 345 346 348 348 350 353 357 359 1 3 2 -0 1 359 353 343 336 325 311 297 274 256 242 238 233 232 233 234 239 241 242 245 250 253 255
231 232 228 229 230 230 250 278 303 300 310 329 336 340 342 342 343 344 345 348 353 355 357 0 359 357 355 354 350 343 337 330 319 305 290 268 250 242 235 234 236 237 240 243 246 250 254 253 254
233 233 232 232 235 237 250 275 288 292 306 322 327 334 340 340 344 344 342 344 348 350 354 358 357 356 355 354 351 348 342 333 323 309 295 277 260 248 243 242 240 241 243 245 249 253 256 255 255
232 235 234 236 237 243 254 271 285 295 302 310 316 325 335 339 342 343 342 343 344 347 352 356 356 353 352 352 351 349 347 341 328 315 302 286 268 258 250 245 244 245 247 250 254 256 259 259 259
230 237 237 239 240 242 247 259 273 285 294 304 313 319 325 330 338 343 342 342 343 344 346 348 350 350 350 350 350 349 346 342 337 332 311 292 283 272 262 256 253 250 251 253 256 258 261 262 263
229 235 242 246 247 247 245 250 263 274 284 292 301 305 314 326 331 337 340 339 341 344 342 343 347 347 348 347 345 344 342 337 335 336 324 298 286 281 271 266 261 259 259 261 260 261 262 262 265
231 236 243 248 249 249 249 249 258 266 276 284 292 297 305 318 327 331 333 334 334 337 339 340 344 346 345 345 344 342 339 336 333 329 323 311 298 291 284 279 272 266 265 263 262 263 264 264 267
Height
5925 5925 5924 5924 5923 5921 5918 5918 5917 5915 5914 5912 5911 5910 5909 5908 5908 5909 5907 5905 5905 5905 5905 5906 5906 5906 5907 5908 5909 5909 5910 5911 5911 5912 5912 5913 5913 5913 5913 5913 5913 5912 5912 5912 5912 5911 5911 5911 5911
5927 5927 5927 5926 5923 5922 5921 5920 5919 5917 5916 5914 5913 5911 5910 5909 5908 5908 5907 5906 5906 5906 5906 5907 5907 5907 5908 5909 5910 5910 5911 5911 5912 5912 5913 5913 5913 5913 5914 5914 5913 5913 5913 5913 5912 5912 5912 5912 5912
5930 5930 5930 5927 5925 5924 5923 5922 5921 5919 5917 5915 5914 5913 5912 5910 5909 5908 5908 5907 5907 5907 5907 5908 5908 5908 5909 5910 5910 5911 5911 5912 5912 5913 5913 5914 5914 5914 5914 5914 5914 5914 5913 5913 5913 5913 5913 5912 5912
5933 5933 5931 5930 5927 5926 5925 5924 5923 5921 5919 5917 5915 5915 5913 5911 5909 5909 5908 5908 5908 5908 5908 5908 5909 5909 5910 5910 5911 5911 5912 5912 5913 5913 5913 5914 5914 5914 5915 5914 5914 5914 5914 5914 5914 5913 5913 5913 5913
5936 5934 5932 5931 5929 5928 5928 5926 5925 5923 5921 5919 5917 5916 5914 5912 5910 5909 5909 5909 5909 5909 5909 5909 5910 5910 5910 5911 5911 5912 5912 5912 5912 5913 5914 5914 5915 5915 5915 5915 5915 5914 5914 5914 5914 5914 5914 5914 5914
5938 5936 5934 5933 5932 5931 5930 5928 5927 5926 5923 5920 5918 5917 5916 5914 5912 5911 5910 5910 5909 5909 5910 5910 5910 5910 5911 5911 5912 5912 5912 5912 5912 5913 5914 5914 5915 5915 5915 5915 5915 5915 5915 5914 5915 5915 5914 5914 5914
5939 5937 5936 5935 5934 5934 5932 5931 5930 5927 5924 5922 5920 5918 5916 5915 5913 5912 5911 5911 5910 5910 5910 5910 5910 5910 5910 5911 5911 5911 5912 5912 5912 5913 5913 5914 5914 5915 5915 5915 5915 5915 5915 5915 5915 5915 5915 5915 5915
5940 5940 5938 5937 5937 5936 5935 5933 5931 5928 5926 5924 5921 5919 5917 5917 5915 5913 5912 5911 5911 5911 5910 5910 5910 5910 5910 5910 5910 5911 5911 5911 5912 5912 5913 5913 5914 5914 5915 5915 5915 5915 5915 5915 5915 5915 5915 5915 5915
5942 5942 5940 5940 5940 5939 5937 5936 5933 5930 5928 5925 5923 5921 5919 5917 5916 5914 5913 5912 5911 5911 5910 5910 5910 5909 5910 5910 5910 5910 5910 5911 5911 5912 5912 5913 5914 5914 5915 5915 5915 5915 5915 5915 5915 5915 5915 5915 5916
5944 5943 5943 5943 5942 5941 5939 5938 5936 5932 5930 5927 5925 5922 5920 5919 5917 5916 5915 5913 5912 5911 5910 5909 5909 5909 5909 5909 5909 5909 5909 5910 5910 5911 5911 5912 5913 5914 5914 5915 5915 5915 5915 5915 5915 5915 5916 5916 5916
5945 5945 5944 5944 5943 5942 5941 5939 5937 5935 5933 5930 5927 5925 5922 5920 5919 5917 5916 5914 5913 5911 5910 5909 5908 5908 5908 5908 5908 5908 5908 5909 5909 5910 5911 5911 5912 5913 5914 5914 5915 5915 5915 5915 5915 5916 5916 5916 5916
5946 5945 5945 5945 5945 5944 5943 5941 5939 5937 5935 5932 5929 5926 5923 5921 5920 5919 5917 5915 5913 5912 5911 5910 5908 5908 5907 5907 5907 5907 5907 5908 5908 5909 5910 5911 5911 5912 5913 5914 5915 5915 5915 5915 5915 5916 5916 5916 5917
5946 5947 5946 5946 5945 5945 5944 5942 5941 5939 5936 5933 5930 5928 5925 5923 5921 5919 5917 5915 5913 5912 5911 5910 5909 5908 5907 5906 5906 5906 5906 5907 5907 5908 5909 5910 5911 5912 5913 5913 5914 5915 5915 5915 5915 5916 5916 5916 5917
5947 5947 5947 5947 5946 5945 5944 5944 5942 5940 5937 5935 5932 5929 5927 5924 5922 5920 5917 5915 5913 5912 5911 5909 5908 5907 5906 5906 5905 5905 5905 5906 5907 5908 5908 5909 5910 5911 5912 5913 5913 5914 5914 5915 5915 5915 5916 5916 5916
5948 5948 5948 5948 5947 5946 5946 5945 5943 5941 5938 5936 5933 5931 5928 5925 5923 5920 5918 5916 5914 5912 5910 5909 5908 5906 5906 5905 5905 5904 5904 5905 5906 5907 5907 5908 5909 5911 5912 5912 5913 5914 5914 5915 5915 5915 5916 5916 5916
5949 5949 5949 5948 5948 5947 5948 5945 5943 5941 5939 5937 5934 5932 5930 5927 5924 5921 5919 5917 5914 5912 5911 5909 5908 5906 5905 5904 5904 5904 5903 5903 5904 5905 5906 5907 5908 5910 5911 5912 5912 5913 5913 5914 5915 5915 5915 5916 5916
5949 5949 5949 5949 5948 5947 5947 5945 5944 5942 5940 5938 5936 5934 5931 5928 5925 5923 5920 5918 5915 5913 5911 5910 5908 5906 5905 5903 5902 5902 5902 5903 5903 5904 5905 5906 5907 5908 5909 5910 5911 5912 5913 5913 5914 5914 5915 5915 5915
5948 5948 5948 5948 5948 5948 5946 5945 5944 5942 5940 5939 5937 5935 5932 5929 5927 5924 5921 5919 5917 5914 5912 5910 5908 5907 5905 5903 5902 5902 5902 5902 5902 5902 5903 5904 5905 5906 5908 5909 5910 5911 5912 5912 5913 5913 5914 5914 5914
5947 5947 5947 5947 5947 5947 5946 5945 5943 5941 5940 5939 5938 5936 5933 5930 5928 5925 5922 5920 5917 5915 5913 5911 5909 5906 5905 5903 5902 5901 5901 5901 5901 5901 5902 5903 5904 5905 5906 5907 5908 5909 5910 5911 5912 5912 5912 5912 5913
5946 5946 5947 5946 5946 5946 5945 5945 5943 5941 5940 5939 5938 5936 5934 5931 5928 5926 5923 5921 5918 5916 5913 5911 5908 5906 5905 5903 5902 5901 5900 5900 5899 5900 5900 5901 5902 5903 5904 5905 5907 5908 5908 5909 5910 5910 5911 5911 5911
5944 5945 5945 5945 5945 5944 5944 5944 5943 5941 5940 5939 5938 5936 5934 5932 5929 5926 5924 5921 5919 5916 5914 5911 5909 5907 5905 5903 5901 5900 5898 5898 5898 5898 5899 5899 5900 5901 5902 5903 5904 5905 5906 5907 5908 5908 5909 5909 5909
5942 5943 5943 5943 5943 5943 5944 5943 5942 5941 5940 5939 5937 5936 5934 5931 5929 5926 5924 5922 5919 5916 5914 5911 5909 5906 5904 5902 5901 5899 5898 5897 5897 5896 5897 5897 5898 5898 5899 5900 5902 5903 5904 5905 5906 5906 5907 5907 5907
5940 5941 5942 5942 5942 5942 5942 5941 5942 5940 5939 5938 5937 5935 5933 5931 5929 5926 5924 5921 5919 5916 5913 5911 5908 5906 5904 5902 5900 5898 5897 5896 5895 5895 5895 5895 5895 5896 5897 5898 5899 5900 5901 5902 5903 5903 5904 5904 5904
5937 5938 5939 5940 5940 5941 5941 5940 5939 5938 5938 5937 5936 5934 5932 5930 5928 5925 5923 5921 5918 5916 5913 5911 5908 5906 5904 5902 5899 5897 5896 5895 5894 5893 5893 5893 5893 5893 5894 5895 5897 5898 5899 5899 5900 5901 5901 5901 5901
5934 5936 5937 5937 5938 5939 5938 5937 5938 5936 5936 5935 5934 5933 5932 5930 5927 5925 5923 5921 5918 5916 5913 5911 5908 5905 5903 5901 5898 5896 5894 5893 5892 5891 5891 5891 5891 5891 5892 5893 5894 5895 5896 5896 5897 5897 5898 5898 5898
5931 5933 5935 5935 5935 5936 5935 5935 5935 5934 5934 5933 5932 5932 5931 5929 5926 5924 5922 5919 5917 5915 5913 5910 5907 5905 5902 5900 5897 5895 5893 5892 5891 5890 5889 5889 5889 5889 5889 5890 5891 5892 5893 5893 5894 5894 5894 5894 5894
5927 5929 5930 5931 5932 5932 5932 5932 5932 5931 5931 5931 5931 5930 5929 5927 5925 5923 5921 5918 5916 5914 5911 5909 5907 5905 5902 5899 5897 5894 5892 5890 5889 5888 5887 5887 5886 5886 5887 5887 5887 5888 5889 5890 5890 5890 5890 5890 5890
5923 5925 5926 5927 5928 5928 5929 5929 5930 5929 5929 5929 5929 5928 5927 5926 5923 5922 5920 5918 5915 5912 5910 5908 5906 5904 5901 5898 5896 5894 5891 5889 5888 5886 5885 5885 5884 5884 5884 5884 5884 5885 5885 5886 5886 5886 5886 5886 5886
5918 5920 5921 5923 5924 5925 5926 5928 5927 5926 5926 5926 5926 5926 5925 5924 5922 5920 5918 5916 5914 5912 5910 5907 5905 5903 5900 5897 5895 5893 5890 5889 5887 5885 5883 5883 5882 5882 5882 5881 5881 5882 5882 5882 5882 5882 5882 5882 5882
5912 5915 5917 5919 5920 5921 5921 5925 5923 5922 5922 5923 5923 5923 5923 5922 5920 5919 5917 5915 5912 5910 5908 5906 5904 5901 5899 5896 5894 5891 5890 5888 5886 5884 5882 5881 5880 5880 5879 5879 5878 5878 5878 5878 5878 5878 5878 5878 5878